This demonstration page uses our WeatherBlox Daily Observations layout. Learn more.

Left ArrowRight Arrow

44.8408, -93.29828

Hourly Observations for March 22, 2017

Temp ( °F °C ) Dew Point ( °F °C ) Humidity (%) Winds ( mph kmh ) Pressure ( in mb ) Visibility ( mi km ) Precip ( " mm )
12:53 am 00:53 Clear 25 -3.9 5 -15 42 42 NE 8 13 30.58 1036 10 16 0.00 0.00
1:53 am 01:53 Clear 25 -3.9 4 -15.6 40 40 NE 8 13 30.59 1036 10 16 0.00 0.00
2:53 am 02:53 Clear 23 -5 4 -15.6 44 44 ENE 6 9 30.59 1036 10 16 0.00 0.00
3:53 am 03:53 Clear 23 -5 4 -15.6 44 44 ENE 7 11 30.58 1036 10 16 0.00 0.00
4:53 am 04:53 Clear 23 -5 4 -15.6 44 44 ENE 8 13 30.57 1035 10 16 0.00 0.00
5:53 am 05:53 Clear 22 -5.6 5 -15 48 48 E 8 13 30.58 1035 10 16 0.00 0.00
6:53 am 06:53 Clear 22 -5.6 6 -14.4 50 50 ESE 9 15 30.58 1036 10 16 0.00 0.00
7:53 am 07:53 Sunny 22 -5.6 7 -13.9 52 52 SE 7 11 30.60 1036 10 16 0.00 0.00
8:53 am 08:53 Mostly Sunny 25 -3.9 8 -13.3 48 48 SE 9 15 30.59 1036 10 16 0.00 0.00
9:53 am 09:53 Mostly Sunny 28 -2.2 6 -14.4 39 39 SE 16 26 30.59 1036 10 16 0.00 0.00
10:53 am 10:53 Mostly Sunny 31 -0.6 7 -13.9 36 36 SSE 14 22 30.58 1036 10 16 0.00 0.00
11:53 am 11:53 Partly Cloudy 32 0 7 -13.9 35 35 SE 12 19 30.57 1035 10 16 0.00 0.00
12:53 pm 12:53 Partly Cloudy 35 1.7 8 -13.3 32 32 SSE 10 17 30.55 1035 10 16 0.00 0.00
1:53 pm 13:53 Partly Cloudy 36 2.2 7 -13.9 30 30 SSE 8 13 30.52 1034 10 16 0.00 0.00
2:53 pm 14:53 Mostly Cloudy 37 2.8 9 -12.8 31 31 S 13 20 30.49 1032 10 16 0.00 0.00
3:53 pm 15:53 Cloudy 38 3.3 11 -11.7 33 33 SSE 14 22 30.45 1031 10 16 0.00 0.00
4:53 pm 16:53 Mostly Cloudy 39 3.9 12 -11.1 33 33 SSE 15 24 30.43 1031 10 16 0.00 0.00
5:53 pm 17:53 Mostly Cloudy 39 3.9 12 -11.1 33 33 SE 14 22 30.40 1030 10 16 0.00 0.00
6:53 pm 18:53 Cloudy 38 3.3 12 -11.1 34 34 SSE 10 17 30.39 1029 10 16 0.00 0.00
7:53 pm 19:53 Cloudy 38 3.3 13 -10.6 36 36 SSE 13 20 30.37 1028 10 16 0.00 0.00
8:53 pm 20:53 Cloudy 37 2.8 12 -11.1 36 36 SE 16 26 30.35 1028 10 16 0.00 0.00
9:53 pm 21:53 Cloudy 37 2.8 13 -10.6 37 37 SE 14 22 30.32 1027 10 16 0.00 0.00
10:53 pm 22:53 Cloudy 38 3.3 14 -10 37 37 SE 17 28 30.32 1027 10 16 0.00 0.00
11:53 pm 23:53 Cloudy 37 2.8 15 -9.4 41 41 SE 13 20 30.30 1026 10 16 0.00 0.00

Powered by AerisWeather